Wilmington, OH

11:23 PM EDT on May 25, 2017 (GMT -0400)
Airborne

Weather History for KILN - July, 2013

Change the Weather History Date:

Tuesday, July 23, 2013

  Actual Average (KFFO) Record (KFFO)
Temperature  
Mean Temperature 76 °F -  
Max Temperature 84 °F 82 °F 97 °F (2012)
Min Temperature 68 °F 61 °F 56 °F (2007)
Cooling Degree Days 11    
Growing Degree Days 26 (Base 50)    
Moisture  
Dew Point 69 °F    
Average Humidity 88    
Maximum Humidity 100    
Minimum Humidity 63    
Precipitation  
Precipitation 0.02 in - - ()
Sea Level Pressure  
Sea Level Pressure 29.80 in    
Wind  
Wind Speed 6 mph (WSW)    
Max Wind Speed 15 mph    
Max Gust Speed 24 mph    
Visibility 5 miles    
Events Fog , Rain , Thunderstorm    
Averages and records for this station are not official NWS values.
T = Trace of Precipitation, MM = Missing Value Source: NWS Daily Summary

Daily Weather History Graph

Daily Weather History Graph

Search for Another Location

Airport or City:

Trip Planner

Search our weather history database for the weather conditions in past years. The results will help you decide how hot, cold, wet, or windy it might be!

Date:

Astronomy

Jul. 23, 2013 Rise Set
Actual Time 6:27 AM EDT 8:55 PM EDT
Civil Twilight 5:56 AM EDT 9:26 PM EDT
Nautical Twilight 5:18 AM EDT 10:04 PM EDT
Astronomical Twilight 4:35 AM EDT 10:46 PM EDT
Moon 9:23 PM EDT (7/23) 7:33 AM EDT (7/23)
Length of Visible Light 15h 29m
Length of Day
14h 28m
Full, 99% of the Moon is Illuminated
Jul 23
Full
Jul 29
Last Quarter
Aug 6
New
Aug 14
First Quarter
Aug 20
Full

Hourly Weather History & Observations

Time (EDT) Temp. Heat Index Dew Point Humidity Pressure Visibility Wind Dir Wind Speed Gust Speed Precip Events Conditions
12:42 AM 69.8 °F - 68.0 °F 94% 29.83 in 1.8 mi SW 3.5 mph - N/A   Partly Cloudy
12:49 AM 69.8 °F - 68.0 °F 94% 29.83 in 0.2 mi Calm Calm - N/A Fog Fog
12:50 AM 69.1 °F - 69.1 °F 100% 29.81 in 0.2 mi Calm Calm - N/A Fog Fog
1:40 AM 69.8 °F - 69.8 °F 100% 29.83 in 0.8 mi West 3.5 mph - N/A   Mist
1:47 AM 69.8 °F - 68.0 °F 94% 29.83 in 1.8 mi WSW 3.5 mph - N/A   Mostly Cloudy
1:54 AM 68.0 °F - 68.0 °F 100% 29.81 in 0.8 mi WSW 4.6 mph - N/A   Mist
2:25 AM 69.8 °F - 69.8 °F 100% 29.84 in 0.2 mi West 5.8 mph - N/A Fog Fog
2:54 AM 70.0 °F - 69.1 °F 97% 29.82 in 0.2 mi West 8.1 mph - N/A Fog Fog
3:02 AM 69.8 °F - 69.8 °F 100% 29.85 in 0.2 mi West 6.9 mph - N/A Fog Fog
3:09 AM 69.8 °F - 69.8 °F 100% 29.84 in 0.5 mi West 5.8 mph - N/A Fog Fog
3:21 AM 69.8 °F - 69.8 °F 100% 29.84 in 1.2 mi West 6.9 mph - N/A   Overcast
3:51 AM 69.8 °F - 69.8 °F 100% 29.84 in 2.5 mi West 5.8 mph - N/A   Overcast
3:54 AM 70.0 °F - 70.0 °F 100% 29.81 in 2.5 mi West 5.8 mph - N/A   Overcast
4:54 AM 69.1 °F - 69.1 °F 100% 29.81 in 2.5 mi West 5.8 mph - N/A   Overcast
5:05 AM 69.8 °F - 69.8 °F 100% 29.83 in 1.0 mi WSW 5.8 mph - N/A   Overcast
5:52 AM 69.8 °F - 68.0 °F 94% 29.83 in 0.8 mi WSW 5.8 mph - N/A   Overcast
5:54 AM 69.1 °F - 68.0 °F 96% 29.80 in 0.8 mi WSW 5.8 mph - N/A   Overcast
6:02 AM 69.8 °F - 68.0 °F 94% 29.82 in 1.5 mi WSW 4.6 mph - N/A   Overcast
6:31 AM 68.0 °F - 68.0 °F 100% 29.83 in 0.5 mi WSW 4.6 mph - N/A Fog Fog
6:47 AM 68.0 °F - 68.0 °F 100% 29.83 in 1.8 mi SW 4.6 mph - N/A   Mostly Cloudy
6:54 AM 68.0 °F - 66.9 °F 96% 29.81 in 1.0 mi SW 3.5 mph - N/A   Overcast
7:01 AM 68.0 °F - 68.0 °F 100% 29.84 in 0.8 mi WSW 6.9 mph - N/A   Overcast
7:09 AM 69.8 °F - 68.0 °F 94% 29.83 in 1.2 mi SW 5.8 mph - N/A   Overcast
7:22 AM 69.8 °F - 69.8 °F 100% 29.83 in 0.5 mi SW 5.8 mph - N/A Fog Fog
7:39 AM 69.8 °F - 69.8 °F 100% 29.82 in 1.2 mi SW 5.8 mph - N/A   Overcast
7:54 AM 70.0 °F - 69.1 °F 97% 29.80 in 1.8 mi WSW 8.1 mph - N/A   Overcast
8:02 AM 69.8 °F - 69.8 °F 100% 29.82 in 2.0 mi SW 5.8 mph - N/A   Overcast
8:27 AM 71.6 °F - 69.8 °F 94% 29.82 in 3.0 mi SW 5.8 mph - N/A   Scattered Clouds
8:54 AM 73.9 °F - 70.0 °F 87% 29.79 in 5.0 mi SSW 6.9 mph - N/A   Clear
9:54 AM 77.0 °F - 70.0 °F 79% 29.80 in 10.0 mi West 9.2 mph - N/A   Partly Cloudy
10:54 AM 79.0 °F - 71.1 °F 77% 29.81 in 10.0 mi WSW 11.5 mph - N/A   Mostly Cloudy
11:32 AM 80.6 °F 84.6 °F 71.6 °F 74% 29.83 in 10.0 mi WSW 13.8 mph - N/A   Scattered Clouds
11:54 AM 81.0 °F 84.9 °F 71.1 °F 72% 29.80 in 10.0 mi WSW 10.4 mph 18.4 mph N/A   Mostly Cloudy
12:54 PM 84.0 °F 89.0 °F 71.1 °F 65% 29.79 in 10.0 mi West 10.4 mph - N/A Thunderstorm Partly Cloudy
1:26 PM 78.8 °F - 71.6 °F 78% 29.82 in 9.0 mi SW 9.2 mph - 0.00 in Rain Light Rain
1:54 PM 84.9 °F 90.1 °F 71.1 °F 63% 29.77 in 10.0 mi WSW 11.5 mph - 0.00 in   Scattered Clouds
2:26 PM 80.6 °F 84.6 °F 71.6 °F 74% 29.80 in 8.0 mi SW 13.8 mph - 0.00 in Rain , Thunderstorm Light Rain
2:54 PM 78.1 °F - 71.1 °F 79% 29.77 in 5.0 mi WSW 13.8 mph 24.2 mph 0.01 in Rain , Thunderstorm Thunderstorms and Rain
3:12 PM 78.8 °F - 69.8 °F 74% 29.78 in 10.0 mi West 8.1 mph - 0.00 in   Scattered Clouds
3:34 PM 78.8 °F - 69.8 °F 74% 29.77 in 10.0 mi SW 6.9 mph - 0.00 in Thunderstorm Clear
3:48 PM 78.8 °F - 71.6 °F 78% 29.77 in 9.0 mi SW 6.9 mph - 0.00 in Thunderstorm Clear
3:49 PM 78.1 °F - 72.0 °F 81% 29.74 in 9.0 mi SW 6.9 mph - 0.00 in Thunderstorm Clear
4:54 PM 73.0 °F - 64.9 °F 76% 29.76 in 10.0 mi SSW 6.9 mph - 0.01 in Thunderstorm Clear
5:03 PM 71.6 °F - 64.4 °F 78% 29.79 in 10.0 mi SW 15.0 mph 18.4 mph N/A   Clear
5:54 PM 75.0 °F - 64.9 °F 71% 29.75 in 10.0 mi SW 11.5 mph - N/A   Clear
6:54 PM 77.0 °F - 66.0 °F 69% 29.73 in 10.0 mi SW 10.4 mph - N/A   Clear
7:54 PM 75.9 °F - 66.0 °F 71% 29.73 in 10.0 mi WSW 10.4 mph - N/A   Clear
8:54 PM 73.9 °F - 68.0 °F 82% 29.74 in 10.0 mi West 5.8 mph - N/A   Clear
9:54 PM 73.0 °F - 68.0 °F 84% 29.76 in 10.0 mi West 4.6 mph - N/A   Mostly Cloudy
10:54 PM 73.0 °F - 68.0 °F 84% 29.78 in 10.0 mi NNW 6.9 mph - N/A   Mostly Cloudy
11:54 PM 71.1 °F - 64.9 °F 81% 29.80 in 10.0 mi North 9.2 mph - N/A   Clear